User: anonymous   Login
Location: Kawakawa
(35.3830°S, 174.0670°E)
Time: 08:27:07
(UTC+12:00)
Language:

Cosmos 1271 Rocket - Orbit

View from above orbital plane
View from above orbital plane
View from above satellite
View from above satellite

Ground track
Ground track

The orbit data is extracted from the following two-line orbital elements,

1 12465U 81046B   19111.89370904  .00000558  00000-0  28622-4 0  9992
2 12465  81.2417 330.1786 0033284 227.6475 132.1934 15.14386620 69402
Epoch (UTC): 21 April 2019 21:26:56
Eccentricity: 0.0033284
inclination: 81.2417°
perigee height: 500 km
apogee height: 546 km
right ascension of ascending node: 330.1786°
argument of perigee: 227.6475°
revolutions per day: 15.14386620
mean anomaly at epoch: 132.1934°
orbit number at epoch: 6940

The dashed part of the orbit path shows where the satellite is in the earth's shadow,  

DLR